Zurück zum Katalog

STARLINK-36634

AktivKommunikationSSO
NORAD 67593·PAYLOAD·🇺🇸 United States

Gestartet Jan 29, 2026 von Vandenberg Space Force Base

Loading…

Nächste Überflüge (nächste 24 Stunden)

TLE

AktuellSource: CelesTrak SupGP

Epoche: Sep 14, 2026, 21:01 UTC

1 67593C 26018E   26257.87618056 -.00024684  00000+0 -76634-3 0  2571
2 67593  97.2844 321.4273 0001154  96.5279 106.5708 15.33448675    11

Verfolge STARLINK-36634 in Echtzeit mit AllMySat

Download on the App Store